Location: Boschetto
(45.1833°N, 10.0333°E)
Time: 18:19:17
(UTC+00:00)

Daily predictions for brighter satellites

Satellite Brightness Start Highest point End
(mag) Time Altitude Azimuth Time Altitude Azimuth Time Altitude Azimuth
Cosmos 1842 3.7 19:43:34 10° SSW 19:47:29 66° W 19:51:25 10° N
Cosmos 292 Rocket 3.9 19:43:10 10° S 19:47:54 58° ESE 19:52:39 10° NNE
IGS 5A 3.5 19:44:13 10° SSE 19:48:20 70° ENE 19:52:30 10° N
SL-16 R/B 2.2 19:44:24 10° S 19:49:58 63° ESE 19:55:36 10° NNE
Cosmos 2360 Rocket 3.1 19:45:39 10° SSE 19:50:25 29° ESE 19:55:13 10° NE
Cosmos 2322 Rocket 2.4 19:46:41 10° S 19:52:10 52° ESE 19:57:42 10° NE
Genesis I 3.2 19:49:01 10° SW 19:52:52 90° SE 19:56:49 10° NE
Resurs 01 Rocket 1.6 19:50:55 10° SSE 19:55:19 88° ENE 19:59:45 10° NNW
Cosmos 1461 4.2 19:51:48 10° NNW 19:55:36 30° NE 19:59:15 10° ESE
OBJECT-B 3.5 19:54:07 10° SW 19:56:24 18° W 19:58:42 10° NW
USA 81 4.3 19:51:24 10° N 19:56:36 56° E 20:01:45 10° SSE
Cosmos 1975 Rocket 3.7 19:58:38 10° SSE 20:02:38 37° E 20:06:41 10° NNE
Cosmos 1470 3.1 20:01:35 10° NNW 20:05:32 66° W 20:09:27 10° S
Meteor 1-21 4.3 20:01:08 10° S 20:06:48 86° W 20:12:28 10° N
SPOT 5 4.0 20:02:25 10° SE 20:06:55 32° ENE 20:11:15 10° N
Cosmos 1674 3.5 20:03:46 10° SSE 20:07:07 32° E 20:10:28 10° NNE
ATLAS CENTAUR R/B 3.4 20:04:17 10° N 20:07:32 21° NE 20:10:55 10° E
Cosmos 1980 Rocket 4.4 20:05:20 10° WSW 20:10:15 30° NW 20:15:11 10° N
Cosmos 2237 4.3 20:08:10 10° S 20:13:42 55° ESE 20:19:15 10° NE
Terra 3.2 20:10:29 10° ESE 20:14:21 26° ENE 20:18:15 10° N
Cosmos 2278 Rocket 4.5 20:13:23 10° NNE 20:15:48 13° NE 20:18:11 10° ENE
Cosmos 1726 3.1 20:15:17 10° NNW 20:18:46 44° W 20:22:14 10° SSW
Lacrosse 5 2.4 20:15:37 10° WNW 20:20:31 51° SW 20:24:51 13° SSE
Cosmos 1315 Rocket 3.6 20:17:22 10° NNW 20:21:23 51° W 20:25:22 10° S
Cosmos 1452 Rocket 3.5 20:20:18 10° SSW 20:25:35 89° WNW 20:30:54 10° NNE
Cosmos 1844 Rocket 3.0 20:20:37 10° NNW 20:26:14 57° ENE 20:30:54 15° SE
SL-8 R/B 3.8 20:23:17 10° WNW 20:28:06 76° NNE 20:32:53 10° ESE
Cosmos 2100 Rocket 4.1 20:24:24 10° N 20:30:46 68° E 20:36:22 13° SSE
ARIANE 5 R/B 2.7 20:29:10 15° SSE 20:32:51 68° ENE 20:37:19 10° N
NOSS 3-2 (C) 4.3 20:28:11 10° WSW 20:33:43 53° NW 20:40:09 10° NNE
Cosmos 1340 3.9 20:32:12 17° SE 20:33:59 24° E 20:37:05 10° NE
Cosmos 1850 Rocket 4.0 20:30:30 10° NNW 20:35:50 86° WSW 20:40:12 15° SSE
FALCON 9 DEB 3.0 20:34:12 10° SW 20:37:38 81° SE 20:41:03 10° ENE
ATLAS 3B R/B 3.1 20:31:54 10° S 20:37:47 37° ESE 20:43:50 10° NE
Cosmos 1908 3.2 20:34:22 10° N 20:38:15 67° E 20:40:58 18° SSE
SPOT 1/Viking Rocket 3.8 20:33:46 10° S 20:38:52 67° WSW 20:44:00 10° NNW
Cosmos 2263 Rocket 3.9 20:34:33 10° NW 20:39:14 27° WSW 20:43:54 10° SSW
Cosmos 1758 4.4 20:36:37 10° NNW 20:40:22 41° W 20:44:06 10° SSW
FALCON 9 DEB 3.9 20:40:01 23° SSE 20:40:29 24° SE 20:43:03 10° E
Geosat 4.0 20:37:26 17° SE 20:41:24 80° ENE 20:46:28 10° NNW
Spot 2 Rocket 3.5 20:40:28 14° SSE 20:44:50 83° WSW 20:49:56 10° NNW
Cosmos 1544 Rocket 3.8 20:40:59 10° N 20:45:25 58° ENE 20:48:22 20° SSE
CZ-2C R/B 4.4 20:40:57 10° N 20:45:40 61° WNW 20:50:22 10° SSW
Lacrosse 5 rocket 1.0 20:44:31 10° SSW 20:48:07 53° SE 20:51:39 10° ENE
ERS-1 Rocket 3.0 20:44:31 17° SSE 20:48:20 73° ENE 20:53:23 10° N
Cosmos 2173 Rocket 4.1 20:42:22 10° N 20:48:47 85° E 20:54:10 15° S
Cosmos 2333 4.5 20:43:51 10° S 20:49:21 48° ESE 20:54:51 10° NE
Cosmos 1331 Rocket 4.0 20:44:13 10° S 20:49:24 68° ESE 20:54:39 10° NNE
FALCON 9 DEB 3.8 20:50:01 27° SE 20:50:01 27° SE 20:52:35 10° ENE
Cosmos 1455 Rocket 3.2 20:45:48 10° NNW 20:50:16 76° W 20:53:47 16° S
Cosmos 2016 Rocket 4.1 20:45:51 10° N 20:51:53 60° ENE 20:56:18 19° SSE
BREEZE-M DEB (TANK) 1.6 20:57:42 10° SW 21:00:06 62° SSE 21:04:35 10° ENE
Cosmos 2333 Rocket 2.5 20:55:53 14° S 21:00:36 49° ESE 21:06:07 10° NE
USA 215 3.7 20:55:45 10° ENE 21:01:42 36° SE 21:07:37 10° SSW
Cosmos 1725 Rocket 4.1 20:57:54 10° N 21:04:03 65° E 21:08:13 21° SSE
Cosmos 1626 2.1 21:04:14 18° SSW 21:06:49 81° W 21:10:32 10° N
Cosmos 1953 3.1 21:03:30 10° NNW 21:07:26 48° W 21:10:22 17° SSW
Cosmos 1302 Rocket 4.2 21:04:49 20° S 21:08:18 51° ESE 21:13:24 10° NNE
SL-14 R/B 3.3 21:08:37 25° S 21:10:54 70° E 21:14:55 10° NNE
Meteor 2-10 Rocket 4.5 21:06:31 10° N 21:11:06 32° ENE 21:13:41 20° ESE
Cosmos 2219 Rocket 2.4 21:07:37 18° S 21:11:41 51° ESE 21:17:10 10° NE
Cosmos 1844 3.7 21:07:38 10° NNW 21:13:13 78° WSW 21:16:41 24° SSE
Cosmos 1536 Rocket 3.6 21:15:05 25° S 21:17:36 69° E 21:22:02 10° NNE
Cosmos 1802 Rocket 4.2 21:12:40 10° NNW 21:18:56 73° W 21:23:39 19° S
CZ-4B DEB 4.1 21:19:02 40° S 21:20:04 88° W 21:23:15 10° NNW
Meteor 1-24 Rocket 3.8 21:21:07 26° SSE 21:23:55 53° E 21:29:14 10° NNE
DNEPR-1 R/B 3.5 21:20:18 10° NNW 21:24:32 73° NE 21:26:37 30° SE
Cosmos 1025 Rocket 3.8 21:22:43 13° SSW 21:26:28 51° WNW 21:30:45 10° N
Cosmos 2237 Rocket 3.5 21:27:21 20° ESE 21:28:27 21° E 21:32:33 10° NE
Cosmos 389 Rocket 3.7 21:26:32 10° NNE 21:29:31 27° ENE 21:30:14 25° E
Cosmos 2360 Rocket 3.2 21:28:46 10° SW 21:34:11 46° WNW 21:39:38 10° NNE
Cosmos 1461 4.0 21:30:55 10° NW 21:34:39 32° WSW 21:36:05 25° SSW
Cosmos 2228 3.6 21:31:07 10° N 21:35:22 45° ENE 21:36:56 31° SE
USA 267 4.2 21:29:29 10° E 21:35:39 46° NNE 21:41:50 10° NW
Cosmos 2322 Rocket 4.2 21:31:35 10° WSW 21:36:29 29° NW 21:41:26 10° N
Cosmos 1486 Rocket 4.3 21:37:37 10° NNW 21:42:46 56° ENE 21:45:12 30° SE
Cosmos 1455 3.6 21:41:39 10° NNE 21:44:52 25° ENE 21:45:44 23° E
SPOT 5 4.1 21:41:31 17° SSW 21:44:54 35° W 21:49:27 10° NNW
ATLAS CENTAUR R/B 1.6 21:42:27 10° NW 21:46:48 68° WSW 21:48:22 39° SSE
Cosmos 968 Rocket 3.4 21:46:10 10° NNW 21:51:19 86° ENE 21:53:28 36° SSE
Terra 2.8 21:49:22 22° SSW 21:51:54 39° W 21:56:24 10° NNW
COSMOS 2428 2.7 21:48:21 20° SSW 21:52:26 86° ESE 21:58:13 10° NNE
Cosmos 1300 3.4 21:49:33 10° NNW 21:53:14 47° W 21:54:30 33° SW
Cosmos 2322 4.0 21:48:42 10° SW 21:54:18 66° WNW 21:59:57 10° NNE
FALCON 9 DEB 2.7 21:54:51 64° SW 21:55:16 89° S 21:58:25 10° ENE
Cosmos 1992 Rocket 4.1 21:54:04 35° SSE 21:55:58 55° ESE 22:01:05 10° NNE
Uosat 12 SS-18 rocket 4.0 21:54:41 29° SSW 21:56:55 79° ESE 22:01:53 10° NE
ATLAS CENTAUR R/B 3.7 21:59:32 28° SE 22:00:43 30° ESE 22:09:13 10° NE
Cosmos 405 4.4 21:57:52 10° NNW 22:00:52 28° W 22:01:49 24° WSW
Cosmos 2278 Rocket 2.6 21:55:36 10° NNW 22:01:13 56° ENE 22:04:01 29° SE
Cosmos 2058 Rocket 4.0 22:01:55 10° N 22:06:05 37° ENE 22:07:18 31° ESE
Cosmos 1844 Rocket 4.3 22:05:17 10° NW 22:09:41 23° WSW 22:12:33 16° SW
SL-8 R/B 4.2 22:06:00 10° WNW 22:10:28 39° SW 22:10:57 38° SSW
Cosmos 1346 Rocket 2.8 22:11:16 46° SSW 22:12:21 76° WNW 22:16:24 10° N
Cosmos 967 Rocket 4.5 22:06:15 10° NW 22:12:38 79° WSW 22:15:34 34° SSE
Cosmos 1726 Rocket 3.6 22:09:14 10° N 22:13:43 74° E 22:14:53 48° SSE
GEOS 3 Rocket 3.6 22:11:18 34° SE 22:13:44 89° NE 22:19:07 10° NW
Cosmos 2233 Rocket 4.3 22:08:03 10° NNW 22:14:04 59° W 22:17:17 28° SSW
FALCON 9 DEB 3.9 22:12:56 10° WSW 22:15:56 47° NNW 22:18:57 10° NE
FALCON 9 DEB 3.5 22:18:01 23° W 22:19:43 54° NNW 22:22:47 10° NE
NOSS 0 Rocket 3.9 22:16:43 32° S 22:19:44 72° ESE 22:25:58 10° NNE
SL-4 R/B 3.1 22:22:18 28° E 22:22:18 28° E 22:24:21 10° ENE
FALCON 9 DEB 4.1 22:22:25 10° W 22:25:24 42° NNW 22:28:24 10° NE
Lacrosse 5 rocket 3.3 22:24:18 10° W 22:27:23 26° NNW 22:30:27 10° NNE
Cosmos 1606 Rocket 3.8 22:23:41 10° NNW 22:28:06 62° W 22:29:16 44° SSW
ATLAS 3B R/B 3.4 22:21:54 10° WSW 22:28:16 52° NW 22:34:54 10° NNE
Cosmos 1892 Rocket 3.5 22:29:33 53° S 22:30:34 86° E 22:35:02 10° N
SJ 16-02 3.6 22:28:54 10° NNE 22:31:53 18° NE 22:34:22 12° E
ALOS 2 2.7 22:32:40 48° SE 22:33:43 65° ENE 22:38:06 10° N
Cosmos 1980 3.6 22:35:59 38° SSW 22:38:17 80° ESE 22:44:00 10° NNE
Cosmos 1441 Rocket 3.4 22:38:21 52° ESE 22:38:29 52° E 22:42:13 10° NNE
Cosmos 1703 3.4 22:39:40 56° ESE 22:39:56 58° E 22:43:49 10° NNE
Meteor 2-1 Rocket 4.2 22:34:44 10° N 22:40:16 76° E 22:42:13 42° SSE
Spot 4 4.0 22:39:08 44° SSW 22:40:27 63° WSW 22:45:13 10° NNW
Cosmos 1943 Rocket 3.9 22:36:04 10° N 22:40:39 26° NE 22:45:01 11° ESE
Cosmos 1503 Rocket 4.0 22:36:47 10° NNW 22:42:11 79° WSW 22:43:52 45° S
USA 215 3.4 22:38:30 10° NE 22:45:02 75° NW 22:51:33 10° WSW
Cosmos 2333 Rocket 3.9 22:40:04 10° WSW 22:45:06 30° NW 22:50:08 10° N
SAR-Lupe-2 4.0 22:47:08 10° NNE 22:50:27 48° E 22:50:27 48° E
Cosmos 1328 4.1 22:52:30 49° E 22:52:38 49° E 22:56:24 10° NNE
Cosmos 2219 Rocket 3.9 22:51:01 10° WSW 22:55:54 29° NW 23:00:49 10° N
Cosmos 1464 Rocket 4.1 22:53:08 10° NNW 22:59:28 72° W 23:02:03 38° SSW
Cosmos 1626 Rocket 3.7 22:59:58 54° SE 23:00:40 62° E 23:05:04 10° NNE
Cosmos 1867 4.2 22:55:40 10° NW 23:00:47 41° WSW 23:01:49 37° SW
Cosmos 1607 3.9 22:56:15 10° NW 23:02:39 74° WSW 23:05:04 40° SSE
Cosmos 2346 Rocket 4.4 23:00:49 38° SSW 23:03:19 81° W 23:09:31 10° N
Thor Agena Rocket 3.9 22:58:13 10° NNE 23:03:22 52° E 23:04:38 42° SE
COBE Rocket 4.4 23:04:31 40° SW 23:05:50 51° W 23:10:42 10° NNW
Cosmos 1602 Rocket 3.9 23:06:53 47° SE 23:07:34 52° E 23:11:56 10° NNE
SL-16 R/B 2.6 23:06:18 39° SE 23:07:37 46° ESE 23:13:01 10° NE
PSLV R/B 4.4 23:05:21 10° NNE 23:09:23 37° E 23:09:53 36° ESE
Cosmos 2237 Rocket 2.5 23:09:08 29° SW 23:11:59 62° WNW 23:17:35 10° NNE
MTI 4.2 23:11:38 10° N 23:14:12 55° NNW 23:14:12 55° NNW
Cosmos 1758 Rocket 4.4 23:14:18 35° ESE 23:15:00 37° E 23:19:05 10° NNE
Meteor 1-4 Rocket 2.4 23:13:26 10° N 23:16:45 79° NNE 23:16:45 79° NNE
USA 267 3.2 23:14:47 29° SE 23:18:26 75° SW 23:25:00 10° NW
Cosmos 1816 Rocket 4.4 23:17:16 40° SSW 23:19:38 85° W 23:25:48 10° N
Cosmos 1455 3.8 23:17:17 10° NW 23:20:21 23° W 23:20:36 23° W
Cosmos 2369 Rocket 3.8 23:18:13 10° N 23:23:13 30° NE 23:28:11 10° ESE
Okean 1-7 Rocket 4.5 23:27:36 34° WSW 23:28:47 41° WNW 23:33:01 10° N
NOSS 2-3 (C) 4.3 23:31:45 37° ESE 23:31:45 37° ESE 23:35:54 10° NE
Cosmos 1777 Rocket 4.0 23:26:45 10° NNW 23:32:02 70° WSW 23:33:25 48° S
Cosmos-2242 3.6 23:28:00 10° N 23:32:18 50° ENE 23:33:23 40° ESE
Cosmos 2034 Rocket 4.3 23:27:29 10° NNW 23:33:30 55° W 23:35:44 36° SSW
Cosmos 1408 4.0 23:37:17 27° E 23:37:29 27° E 23:40:38 10° NNE
Cosmos 2297 3.6 23:38:36 10° NNW 23:44:16 89° ENE 23:46:31 39° SSE
Cosmos 1812 Rocket 3.5 23:40:17 10° NNW 23:44:38 71° W 23:45:17 59° SSW
Cosmos 2278 Rocket 3.5 23:40:29 10° NW 23:44:52 23° WSW 23:45:51 22° WSW
Meteor 1-11 4.2 23:44:20 43° SSW 23:46:15 81° W 23:51:52 10° N
Meteor 1-27 4.2 23:42:39 10° N 23:48:14 74° ENE 23:50:25 38° SSE
Cosmos 724 4.3 23:42:12 10° NW 23:48:23 78° WSW 23:50:57 36° SSE
